Weather Service Report


369 
ASUS45 KTFX 242004
RWRMT 
MONTANA HOURLY WEATHER ROUNDUP
NATIONAL WEATHER SERVICE GREAT FALLS MT
104 PM MST MON NOV 24 2014

NOTE: "FAIR" INDICATES FEW OR NO CLOUDS BELOW 12000 FEET WITH NO
SIGNIFICANT WEATHER AND/OR OBSTRUCTIONS TO VISIBILITY.

* THESE STATIONS ARE NOT UNDER NWS QUALITY CONTROL. THEY DO NOT
   REPORT WEATHER SUCH AS PRECIPITATION OR FOG.

MTZ001>007-043-242100-
WEST OF THE DIVIDE
CITY           SKY/WX    TMP DP  RH WIND       PRES   REMARKS
KALISPELL      CLOUDY    37  28  70 SW12      30.26S WCI  29 
MISSOULA       CLOUDY    41  25  53 W17       30.32R 
BUTTE          PTCLDY    34  12  40 NW12      30.21F WCI  25 
MULLAN PASS    CLOUDY    25  21  85 SW5       30.22S WCI  19 
* ESSEX        N/A       34  23  64 E1         N/A   
* LINCOLN      N/A       32  23  69 SW5G12     N/A   WCI  27 
* LOOKOUT PASS N/A       30  25  82 SE6        N/A   WCI  24 
* POLSON       N/A       35  32  89 S1G7       N/A   
* RONAN APT    CLOUDY    39  25  57 SW9        N/A   WCI  33 
* SEELEY LAKE  N/A       37  26  64 E1         N/A   
* THOMP F APT  CLOUDY    32  10  40 NW10G24    N/A   WCI  24 
* YAAK HILL    N/A       32  30  92 NW1        N/A   
$$

MTZ008-052>055-242100-
SOUTHWEST MONTANA
CITY           SKY/WX    TMP DP  RH WIND       PRES   REMARKS
BOZEMAN        PTCLDY    37  14  39 W15G25    30.21F WCI  28 
DILLON         SUNNY     37  10  33 VRB3      30.23S 
* W YELLOWSTON PTSUNNY   30  15  54 NW3G8      N/A   
* ENNIS APT    PTCLDY    34  12  40 W13        N/A   WCI  25 
* THREE FORKS  PTCLDY    43  16  34 W10G22     N/A   
* BOULDER HILL N/A       31  10  41 N8         N/A   WCI  24 
* MONIDA PASS  N/A       26  11  53 NW15G22    N/A   WCI  14 
* RAYNOLDS PAS N/A       26 -21  11 N9         N/A   WCI  17 
* WHITEHALL    N/A       42  14  32 W14G21     N/A   
* WISE RIVER   N/A       32  13  45 W19G30     N/A   WCI  20 
$$

MTZ009>010-012-014-046-048-049-054-242100-
EAST SLOPES AND CENTRAL MONTANA
CITY           SKY/WX    TMP DP  RH WIND       PRES   REMARKS
CUT BANK       PTSUNNY   39  18  43 W30G38    30.06F WCI  27 
GREAT FALLS    SUNNY     43  16  34 W23G29    30.10S 
HELENA         PTCLDY    39  16  39 W25G35    30.19F WCI  28 
MALMSTROM AFB  PTSUNNY   41  16  36 W21G28    30.13S 
* DEARBORN     N/A       41  18  39 S17G25     N/A   
* EAST GLACIER N/A       31  18  59 W22G35     N/A   WCI  18 
* MONARCH      N/A       31  11  43 W19G26     N/A   WCI  19 
* PENDROY      N/A       39  17  41 W22G32     N/A   WCI  29 
* ROGERS PASS  N/A       28  19  69 SE16G30    N/A   WCI  16 
* SAINT MARY   N/A       32  20  61 S10G25     N/A   WCI  24 
* SWEET GRASS  N/A       40  13  33 NW16G21    N/A   WCI  32 
$$

MTZ011-013-016-021-035-040-045-047-050-051-242100-
NORTH CENTRAL MONTANA
CITY           SKY/WX    TMP DP  RH WIND       PRES   REMARKS
HAVRE          PTSUNNY   39  27  62 W12       30.08S WCI  32 
LEWISTOWN      LGT SNOW  37  19  48 NW23G30   30.09S WCI  26 
* CHESTER      N/A       41  20  43 NW14G21    N/A   
* DENTON       N/A       41  18  39 W22G27     N/A   
* GEYSER       N/A       38  17  42 W24G29     N/A   WCI  27 
* JUDITH GAP   N/A       40  19  43 NW24G33    N/A   WCI  30 
* LOMA         N/A       42  23  47 S3         N/A   
$$

MTZ017>020-022>027-061-062-242100-
NORTHEAST MONTANA
CITY           SKY/WX    TMP DP  RH WIND       PRES   REMARKS
GLASGOW        CLOUDY    34  23  64 W12       30.01S WCI  25 
GLENDIVE       PTSUNNY   32  25  75 W13G18    30.00S WCI  22 
JORDAN         PTCLDY    39  25  57 NW23G31   30.03R WCI  28 
SIDNEY         PTCLDY    25  18  75 SW6       30.03R WCI  18 
WOLF POINT     PTSUNNY   34  23  64 W13       30.00S WCI  25 
* BEAVER HILL  N/A       24  19  81 W12        N/A   WCI  13 
* CIRCLE       N/A       34  28  79 SW8G16     N/A   WCI  27 
* LINDSAY DVD  N/A       29  24  82 W16G23     N/A   WCI  17 
* NAVAJO       N/A       30  21  69 W12        N/A   WCI  20 
* SACO         N/A       36  25  64 W15G20     N/A   WCI  27 
$$

MTZ028>042-056>058-242100-
SOUTHCENTRAL AND SOUTHEAST MONTANA
CITY           SKY/WX    TMP DP  RH WIND       PRES   REMARKS
BAKER          CLOUDY    30  19  64 NW16G24   29.99R WCI  19 
BILLINGS       PTSUNNY   45  18  34 NW24G31   30.10R 
LIVINGSTON     PTSUNNY   39  14  36 W20G30    30.16S WCI  29 
MILES CITY     CLOUDY    37  28  70 W16G22    30.02R WCI  28 
* LAUREL APT   PTCLDY    43  16  34 W17G25     N/A   
* ALZADA       N/A       31  28  89 W16G22     N/A   WCI  20 
* HYSHAM       N/A       40  14  35 W11G26     N/A   WCI  33 
* LAME DEER    N/A       34  22  61 NW10G17    N/A   WCI  26 
* REED POINT   N/A       41  20  43 W27G34     N/A   
* ROSCOE HILL  N/A       34   7  32 W7G21      N/A   WCI  28 
$$

REGIONAL REPORTS...DAKOTAS
CITY           SKY/WX    TMP DP  RH WIND       PRES   REMARKS
WILLISTON      PTCLDY    25  18  75 W10       29.99R WCI  15 
DICKINSON      PTCLDY    23  16  74 W17       29.93R WCI   9 
BEACH          PTSUNNY   25  23  92 NW17      29.99R WCI  12 
CROSBY         CLOUDY    23  18  81 W10       29.95F WCI  13 
BISMARCK       SUNNY     27   0  31 N10G22    29.95R WCI  18 
GRAND FORKS    PTCLDY    18  10  71 N21G29    29.83R WCI   1 
FARGO          CLOUDY    18  10  71 N25G31    29.80R 
BUFFALO SD     PTCLDY    34  21  59 NW23G28   29.88R WCI  22 
RAPID CITY     SNOW      28  27  96 N7        29.94R VSB 1/2  WCI  21 
$$

REGIONAL REPORTS...WYOMING/IDAHO/WASHINGTON
CITY           SKY/WX    TMP DP  RH WIND       PRES   REMARKS
SHERIDAN       LGT SNOW  36  23  59 NW22G36   30.07R WCI  25 
CODY           PTSUNNY   36   9  32 NW9G20    30.10S WCI  29 
YELLOWSTONE LA PTSUNNY   23   9  55 W13G24    30.17R WCI  11 
SALMON         SUNNY     36  27  70 CALM      30.32F 
MULLAN PASS    CLOUDY    25  21  85 SW5       30.22S WCI  19 
SAND POINT     CLOUDY    36  32  85 SW5       30.33F WCI  32 
SPOKANE        CLOUDY    36  32  85 SE6       30.32F WCI  31 
$$

REGIONAL REPORTS...SASKATCHEWAN
CITY           SKY/WX    TMP DP  RH WIND       PRES   REMARKS
SWIFT CURRENT  CLOUDY    30  28  92 NW20G25   29.93S WCI  17 
REGINA         LGT SNOW  23  19  85 SW8       29.89F VSB 1 1/2 WCI  14 

$$


Return to Home page


Western Regional Climate Center, wrcc@dri.edu